AAL300 KJFK-KLAX

Flight info

Callsign AAL300
Flight time N/A
Altitude 36000
Route SKORR6 RNGRR RBV Q430 SAAME BRNAN Q42 HIDON EMPTY SCOTO ENL MAHER LBL KA42W RSK RHYSS PLNDL PRFUM DNERO ANJLL4
Aircraft B77W/H-SDE1E2E3FGHIJ2J3J4J5M1RWXY/LB1D1

Departure

Time N/A
Airport John F. Kennedy International Airport (KJFK)

Arrival

Time 2026-05-04 02:18
Airport Los Angeles International Airport (KLAX)
Time Latitude Longitude Altitude Speed Heading
2026-05-04 00:40 36.33843 -110.22250 36003 ft 397 kts 258°
2026-05-04 00:40 36.32499 -110.28878 36008 ft 396 kts 258°
2026-05-04 00:41 36.31150 -110.35492 36006 ft 396 kts 258°
2026-05-04 00:41 36.29797 -110.42124 36006 ft 396 kts 258°
2026-05-04 00:42 36.28439 -110.48743 36008 ft 396 kts 258°
2026-05-04 00:42 36.27095 -110.55281 36007 ft 397 kts 257°
2026-05-04 00:43 36.25728 -110.61911 35993 ft 397 kts 257°
2026-05-04 00:43 36.24357 -110.68548 35979 ft 398 kts 257°
2026-05-04 00:44 36.22980 -110.75189 35976 ft 398 kts 257°
2026-05-04 00:44 36.21599 -110.81824 35991 ft 398 kts 257°
2026-05-04 00:45 36.20014 -110.88397 35984 ft 400 kts 252°
2026-05-04 00:45 36.17773 -110.94714 35984 ft 401 kts 249°
2026-05-04 00:46 36.15495 -111.01010 35988 ft 400 kts 249°
2026-05-04 00:46 36.13224 -111.07300 35985 ft 400 kts 249°
2026-05-04 00:47 36.10967 -111.13546 35994 ft 400 kts 249°
2026-05-04 00:47 36.08693 -111.19835 35994 ft 400 kts 249°
2026-05-04 00:48 36.06413 -111.26121 36003 ft 400 kts 249°
2026-05-04 00:48 36.04523 -111.31325 36005 ft 400 kts 249°
2026-05-04 00:49 36.02236 -111.37602 36012 ft 400 kts 249°
2026-05-04 00:49 35.99947 -111.43877 36004 ft 400 kts 249°
2026-05-04 00:50 35.97656 -111.50141 36012 ft 400 kts 249°
2026-05-04 00:50 35.95364 -111.56402 36021 ft 399 kts 249°
2026-05-04 00:51 35.93090 -111.62596 36029 ft 399 kts 249°
2026-05-04 00:51 35.90803 -111.68822 36035 ft 398 kts 249°
2026-05-04 00:52 35.88511 -111.75045 36054 ft 398 kts 249°
2026-05-04 00:52 35.86213 -111.81273 36061 ft 399 kts 249°
2026-05-04 00:53 35.84148 -111.87613 36057 ft 397 kts 255°
2026-05-04 00:53 35.82793 -111.94204 36059 ft 397 kts 260°
2026-05-04 00:54 35.81786 -112.00889 36060 ft 397 kts 261°
2026-05-04 00:54 35.80777 -112.07589 36058 ft 398 kts 261°
2026-05-04 00:55 35.79758 -112.14286 36054 ft 398 kts 260°
2026-05-04 00:55 35.78738 -112.20931 36056 ft 397 kts 260°
2026-05-04 00:56 35.77706 -112.27619 36059 ft 397 kts 260°
2026-05-04 00:56 35.76669 -112.34300 36058 ft 397 kts 260°
2026-05-04 00:57 35.75632 -112.40975 36062 ft 397 kts 260°
2026-05-04 00:57 35.74593 -112.47640 36047 ft 396 kts 260°
2026-05-04 00:58 35.73549 -112.54302 36060 ft 396 kts 260°
2026-05-04 00:58 35.72502 -112.60956 36059 ft 396 kts 260°
2026-05-04 00:59 35.71453 -112.67604 36050 ft 395 kts 260°
2026-05-04 00:59 35.70400 -112.74245 36045 ft 395 kts 260°
2026-05-04 01:00 35.69345 -112.80880 36044 ft 395 kts 259°
2026-05-04 01:00 35.68285 -112.87513 36031 ft 395 kts 259°
2026-05-04 01:01 35.67221 -112.94152 36029 ft 395 kts 259°
2026-05-04 01:01 35.66161 -113.00745 36028 ft 395 kts 259°
2026-05-04 01:02 35.65090 -113.07383 36003 ft 396 kts 259°
2026-05-04 01:02 35.64014 -113.14025 36000 ft 396 kts 259°
2026-05-04 01:03 35.62933 -113.20669 35990 ft 396 kts 259°
2026-05-04 01:03 35.61848 -113.27318 35979 ft 396 kts 259°
2026-05-04 01:04 35.60761 -113.33958 35958 ft 396 kts 259°
2026-05-04 01:04 35.59669 -113.40603 35950 ft 397 kts 259°
2026-05-04 01:05 35.58573 -113.47253 35949 ft 397 kts 259°
2026-05-04 01:05 35.57472 -113.53901 35924 ft 397 kts 259°
2026-05-04 01:06 35.56374 -113.60506 35911 ft 397 kts 259°
2026-05-04 01:06 35.55263 -113.67173 35893 ft 398 kts 259°
2026-05-04 01:07 35.54148 -113.73833 35896 ft 398 kts 259°
2026-05-04 01:07 35.53029 -113.80510 35882 ft 399 kts 259°
2026-05-04 01:08 35.51904 -113.87182 35889 ft 399 kts 259°
2026-05-04 01:08 35.50270 -113.93691 35894 ft 400 kts 251°
2026-05-04 01:09 35.47992 -113.99937 35851 ft 402 kts 244°
2026-05-04 01:09 35.45145 -114.05850 35854 ft 402 kts 243°
2026-05-04 01:10 35.42277 -114.11685 35867 ft 401 kts 243°
2026-05-04 01:10 35.39415 -114.17530 35860 ft 400 kts 243°
2026-05-04 01:11 35.36549 -114.23395 35840 ft 401 kts 243°
2026-05-04 01:11 35.33826 -114.28975 35791 ft 400 kts 243°
2026-05-04 01:12 35.31080 -114.34590 35789 ft 399 kts 243°
2026-05-04 01:12 35.28226 -114.40417 35762 ft 399 kts 243°
2026-05-04 01:13 35.25364 -114.46250 35728 ft 400 kts 243°
2026-05-04 01:13 35.22517 -114.52044 35712 ft 399 kts 243°
2026-05-04 01:14 35.19651 -114.57860 35700 ft 399 kts 243°
2026-05-04 01:14 35.16791 -114.63658 35699 ft 397 kts 243°
2026-05-04 01:15 35.13941 -114.69434 35696 ft 397 kts 243°
2026-05-04 01:15 35.11094 -114.75190 35698 ft 395 kts 243°
2026-05-04 01:16 35.08251 -114.80933 35710 ft 395 kts 243°
2026-05-04 01:16 35.05408 -114.86661 35709 ft 395 kts 243°
2026-05-04 01:17 35.02599 -114.92421 35714 ft 393 kts 245°
2026-05-04 01:17 35.00042 -114.98331 35721 ft 394 kts 246°
2026-05-04 01:18 34.97542 -115.04213 35732 ft 394 kts 246°
2026-05-04 01:18 34.94994 -115.10132 35733 ft 394 kts 245°
2026-05-04 01:19 34.92435 -115.16032 35742 ft 393 kts 245°
2026-05-04 01:19 34.89869 -115.21927 35739 ft 394 kts 245°
2026-05-04 01:20 34.87305 -115.27806 35749 ft 393 kts 245°
2026-05-04 01:20 34.84740 -115.33678 35753 ft 393 kts 245°
2026-05-04 01:21 34.82174 -115.39549 35761 ft 392 kts 245°
2026-05-04 01:21 34.79608 -115.45402 35770 ft 391 kts 245°
2026-05-04 01:22 34.77276 -115.51362 35783 ft 389 kts 249°
2026-05-04 01:22 34.75112 -115.57398 35793 ft 389 kts 249°
2026-05-04 01:23 34.72949 -115.63364 35811 ft 388 kts 249°
2026-05-04 01:23 34.70745 -115.69357 35811 ft 389 kts 248°
2026-05-04 01:24 34.68526 -115.75357 35826 ft 389 kts 248°
2026-05-04 01:24 34.66303 -115.81363 35834 ft 390 kts 248°
2026-05-04 01:25 34.64074 -115.87368 35835 ft 390 kts 248°
2026-05-04 01:25 34.61853 -115.93364 35843 ft 388 kts 249°
2026-05-04 01:26 34.59646 -115.99349 35850 ft 388 kts 249°
2026-05-04 01:26 34.57448 -116.05311 35848 ft 386 kts 248°
2026-05-04 01:27 34.55257 -116.11244 35863 ft 385 kts 248°
2026-05-04 01:27 34.53069 -116.17149 35851 ft 382 kts 248°
2026-05-04 01:28 34.50903 -116.22978 35888 ft 381 kts 248°
2026-05-04 01:28 34.48717 -116.28858 35887 ft 383 kts 248°
2026-05-04 01:29 34.46561 -116.34637 35581 ft 370 kts 248°
2026-05-04 01:29 34.45511 -116.37462 34981 ft 367 kts 248°
2026-05-04 01:29 34.44461 -116.40283 34230 ft 367 kts 248°
2026-05-04 01:29 34.43407 -116.43105 33490 ft 368 kts 248°
2026-05-04 01:30 34.42351 -116.45927 32823 ft 366 kts 248°
2026-05-04 01:30 34.41294 -116.48732 32178 ft 366 kts 247°
2026-05-04 01:30 34.40192 -116.51466 31548 ft 366 kts 246°
2026-05-04 01:30 34.39047 -116.54207 30932 ft 364 kts 245°
2026-05-04 01:31 34.37902 -116.56938 30330 ft 362 kts 245°
2026-05-04 01:31 34.36766 -116.59663 29729 ft 361 kts 245°
2026-05-04 01:31 34.35649 -116.62364 29374 ft 353 kts 245°
2026-05-04 01:31 34.34568 -116.64979 29204 ft 342 kts 245°
2026-05-04 01:32 34.33518 -116.67519 29036 ft 331 kts 245°
2026-05-04 01:32 34.32500 -116.70020 28508 ft 332 kts 246°
2026-05-04 01:32 34.31827 -116.71695 28193 ft 335 kts 246°
2026-05-04 01:32 34.30803 -116.74260 27666 ft 341 kts 246°
2026-05-04 01:33 34.29851 -116.76648 27184 ft 342 kts 245°
2026-05-04 01:33 34.28886 -116.79042 26660 ft 341 kts 245°
2026-05-04 01:33 34.27848 -116.81612 26128 ft 339 kts 245°
2026-05-04 01:33 34.26897 -116.83972 25657 ft 336 kts 245°
2026-05-04 01:34 34.25956 -116.86303 25163 ft 335 kts 245°
2026-05-04 01:34 34.25022 -116.88618 24689 ft 333 kts 245°
2026-05-04 01:34 34.24009 -116.91133 24164 ft 332 kts 244°
2026-05-04 01:34 34.23069 -116.93458 23687 ft 331 kts 244°
2026-05-04 01:35 34.22070 -116.95925 23183 ft 331 kts 244°
2026-05-04 01:35 34.21142 -116.98233 22713 ft 329 kts 245°
2026-05-04 01:35 34.20316 -117.00814 22198 ft 330 kts 250°
2026-05-04 01:35 34.19678 -117.03266 21683 ft 329 kts 252°
2026-05-04 01:36 34.19066 -117.05713 21262 ft 328 kts 251°
2026-05-04 01:36 34.18490 -117.07947 20820 ft 328 kts 251°
2026-05-04 01:36 34.17848 -117.10366 20368 ft 327 kts 251°
2026-05-04 01:36 34.17141 -117.12987 19855 ft 329 kts 250°
2026-05-04 01:37 34.16486 -117.15405 19366 ft 328 kts 250°
2026-05-04 01:37 34.15773 -117.18014 18905 ft 327 kts 250°
2026-05-04 01:37 34.15109 -117.20421 18430 ft 327 kts 250°
2026-05-04 01:37 34.14444 -117.22836 17968 ft 327 kts 250°
2026-05-04 01:38 34.13735 -117.25406 17477 ft 326 kts 250°
2026-05-04 01:38 34.13073 -117.27805 17026 ft 325 kts 250°
2026-05-04 01:38 34.12421 -117.30170 16572 ft 323 kts 250°
2026-05-04 01:38 34.11766 -117.32543 16127 ft 322 kts 250°
2026-05-04 01:39 34.11120 -117.34890 15686 ft 321 kts 250°
2026-05-04 01:39 34.10470 -117.37245 15242 ft 321 kts 250°
2026-05-04 01:39 34.09857 -117.39624 14803 ft 321 kts 251°
2026-05-04 01:39 34.09273 -117.41995 14373 ft 320 kts 251°
2026-05-04 01:40 34.08685 -117.44373 13930 ft 320 kts 251°
2026-05-04 01:40 34.08093 -117.46747 13603 ft 317 kts 250°
2026-05-04 01:40 34.07523 -117.49031 13477 ft 307 kts 250°
2026-05-04 01:40 34.06898 -117.51278 13115 ft 304 kts 246°
2026-05-04 01:41 34.06125 -117.53448 12740 ft 303 kts 243°
2026-05-04 01:41 34.05317 -117.55592 12353 ft 302 kts 243°
2026-05-04 01:41 34.04515 -117.57727 11959 ft 302 kts 243°
2026-05-04 01:41 34.03723 -117.59874 11576 ft 302 kts 243°
2026-05-04 01:42 34.02948 -117.62005 11184 ft 302 kts 244°
2026-05-04 01:42 34.02165 -117.64172 10801 ft 302 kts 244°
2026-05-04 01:42 34.01514 -117.65973 10484 ft 302 kts 244°
2026-05-04 01:42 34.00766 -117.68100 10341 ft 292 kts 248°
2026-05-04 01:43 34.00342 -117.70445 10207 ft 283 kts 261°
2026-05-04 01:43 34.00163 -117.72599 10094 ft 274 kts 262°
2026-05-04 01:43 33.99986 -117.74846 9973 ft 264 kts 262°
2026-05-04 01:43 33.99821 -117.76879 9725 ft 261 kts 262°
2026-05-04 01:44 33.99656 -117.78716 9423 ft 262 kts 262°
2026-05-04 01:44 33.99448 -117.80902 9074 ft 262 kts 262°
2026-05-04 01:44 33.99260 -117.82867 8730 ft 251 kts 262°
2026-05-04 01:44 33.99068 -117.84869 8407 ft 237 kts 262°
2026-05-04 01:45 33.98892 -117.86689 8150 ft 237 kts 262°
2026-05-04 01:45 33.98734 -117.88507 7864 ft 235 kts 264°
2026-05-04 01:45 33.98458 -117.92096 7311 ft 232 kts 262°
2026-05-04 01:46 33.98277 -117.94018 7011 ft 229 kts 262°
2026-05-04 01:46 33.98105 -117.95755 6746 ft 227 kts 262°
2026-05-04 01:46 33.97915 -117.97633 6464 ft 225 kts 262°
2026-05-04 01:46 33.97739 -117.99355 6204 ft 222 kts 261°
2026-05-04 01:47 33.97549 -118.01191 5917 ft 220 kts 261°
2026-05-04 01:47 33.97375 -118.02872 5655 ft 217 kts 261°
2026-05-04 01:47 33.97192 -118.04663 5436 ft 211 kts 261°
2026-05-04 01:47 33.97025 -118.06276 5220 ft 208 kts 261°
2026-05-04 01:48 33.96850 -118.07994 4952 ft 205 kts 261°
2026-05-04 01:48 33.96692 -118.09541 4710 ft 202 kts 261°
2026-05-04 01:48 33.96534 -118.11080 4463 ft 199 kts 261°
2026-05-04 01:48 33.96380 -118.12599 4220 ft 195 kts 261°
2026-05-04 01:49 33.96224 -118.14090 3984 ft 192 kts 261°
2026-05-04 01:49 33.96073 -118.15558 3751 ft 190 kts 261°
2026-05-04 01:49 33.95926 -118.16994 3520 ft 184 kts 261°
2026-05-04 01:49 33.95785 -118.18373 3328 ft 177 kts 261°
2026-05-04 01:50 33.95649 -118.19699 3089 ft 169 kts 261°
2026-05-04 01:50 33.95522 -118.20944 2898 ft 156 kts 261°
2026-05-04 01:50 33.95403 -118.22098 2723 ft 149 kts 261°
2026-05-04 01:50 33.95285 -118.23230 2572 ft 146 kts 261°
2026-05-04 01:51 33.95168 -118.24359 2367 ft 147 kts 262°
2026-05-04 01:51 33.95054 -118.25482 2184 ft 146 kts 262°
2026-05-04 01:51 33.94939 -118.26602 2001 ft 145 kts 262°
2026-05-04 01:51 33.94824 -118.27713 1822 ft 144 kts 263°
2026-05-04 01:52 33.94710 -118.28818 1646 ft 143 kts 263°
2026-05-04 01:52 33.94597 -118.29921 1475 ft 143 kts 263°
2026-05-04 01:52 33.94484 -118.31016 1295 ft 142 kts 264°
2026-05-04 01:52 33.94371 -118.32111 1116 ft 141 kts 264°
2026-05-04 01:53 33.94259 -118.33198 946 ft 141 kts 263°
2026-05-04 01:53 33.94144 -118.34295 748 ft 142 kts 263°
2026-05-04 01:53 33.94029 -118.35399 583 ft 144 kts 264°
2026-05-04 01:53 33.93921 -118.36508 413 ft 144 kts 262°
2026-05-04 01:54 33.93802 -118.37600 239 ft 141 kts 263°
2026-05-04 01:54 33.93694 -118.38663 106 ft 135 kts 263°
2026-05-04 01:54 33.93598 -118.39628 102 ft 135 kts 262°
2026-05-04 01:54 33.93462 -118.40930 288 ft 164 kts 262°
2026-05-04 01:55 33.93340 -118.42046 384 ft 139 kts 262°
2026-05-04 01:55 33.93192 -118.43314 732 ft 175 kts 260°
2026-05-04 01:55 33.93006 -118.44571 742 ft 187 kts 256°
2026-05-04 01:55 33.92657 -118.45842 749 ft 187 kts 249°
2026-05-04 01:56 33.92248 -118.47057 726 ft 192 kts 248°
2026-05-04 01:56 33.91891 -118.48094 735 ft 191 kts 248°
2026-05-04 01:56 33.91461 -118.49336 737 ft 189 kts 248°
2026-05-04 01:56 33.91032 -118.50580 823 ft 190 kts 247°
2026-05-04 01:57 33.90602 -118.51820 1019 ft 191 kts 246°
2026-05-04 01:57 33.90170 -118.53062 1220 ft 195 kts 246°
2026-05-04 01:57 33.89768 -118.54022 1357 ft 196 kts 232°
2026-05-04 01:57 33.88815 -118.54919 1410 ft 198 kts 206°
2026-05-04 01:58 33.87738 -118.55533 1644 ft 205 kts 207°
2026-05-04 01:58 33.86636 -118.56204 1882 ft 210 kts 207°
2026-05-04 01:58 33.85518 -118.56886 2106 ft 212 kts 208°
2026-05-04 01:58 33.84387 -118.57572 2324 ft 214 kts 208°
2026-05-04 01:59 33.83259 -118.58270 2520 ft 212 kts 210°
2026-05-04 01:59 33.82116 -118.58825 2696 ft 213 kts 188°
2026-05-04 01:59 33.80738 -118.58873 3095 ft 214 kts 181°
2026-05-04 01:59 33.79451 -118.58872 3567 ft 218 kts 181°
2026-05-04 02:00 33.78141 -118.58859 4000 ft 220 kts 175°
2026-05-04 02:00 33.76901 -118.58373 4421 ft 225 kts 147°
2026-05-04 02:00 33.75981 -118.57214 4865 ft 229 kts 120°
2026-05-04 02:00 33.75559 -118.55637 5006 ft 238 kts 95°
2026-05-04 02:01 33.75735 -118.53969 5019 ft 236 kts 73°
2026-05-04 02:01 33.76175 -118.52367 5011 ft 236 kts 72°
2026-05-04 02:01 33.76629 -118.50782 5006 ft 236 kts 72°
2026-05-04 02:01 33.77123 -118.49068 5003 ft 234 kts 70°
2026-05-04 02:02 33.77790 -118.47639 4993 ft 231 kts 45°
2026-05-04 02:02 33.78965 -118.46569 5026 ft 232 kts 32°
2026-05-04 02:02 33.80138 -118.45687 5022 ft 240 kts 32°
2026-05-04 02:02 33.81453 -118.44700 5011 ft 241 kts 32°
2026-05-04 02:03 33.82760 -118.43722 4999 ft 238 kts 31°
2026-05-04 02:03 33.84035 -118.42774 4996 ft 235 kts 31°
2026-05-04 02:03 33.85311 -118.41823 4997 ft 233 kts 31°
2026-05-04 02:03 33.86569 -118.40859 4988 ft 231 kts 38°
2026-05-04 02:04 33.87493 -118.39513 5007 ft 235 kts 68°
2026-05-04 02:04 33.87927 -118.37760 5020 ft 238 kts 79°
2026-05-04 02:04 33.88198 -118.36095 5013 ft 239 kts 81°
2026-05-04 02:04 33.88446 -118.34421 5003 ft 237 kts 81°
2026-05-04 02:05 33.88694 -118.32760 4999 ft 236 kts 81°
2026-05-04 02:05 33.88917 -118.31264 4993 ft 236 kts 81°
2026-05-04 02:05 33.89163 -118.29602 4986 ft 235 kts 81°
2026-05-04 02:05 33.89403 -118.27953 4984 ft 233 kts 83°
2026-05-04 02:06 33.89517 -118.26308 4994 ft 231 kts 90°
2026-05-04 02:06 33.89541 -118.24657 4994 ft 231 kts 91°
2026-05-04 02:06 33.89553 -118.23010 4993 ft 231 kts 91°
2026-05-04 02:06 33.89561 -118.21353 4993 ft 232 kts 91°
2026-05-04 02:07 33.89566 -118.19687 4995 ft 233 kts 91°
2026-05-04 02:07 33.89570 -118.18020 4996 ft 234 kts 91°
2026-05-04 02:07 33.89574 -118.16343 4998 ft 234 kts 91°
2026-05-04 02:07 33.89578 -118.14673 5000 ft 235 kts 91°
2026-05-04 02:08 33.89584 -118.13015 4997 ft 236 kts 91°
2026-05-04 02:08 33.89588 -118.11504 4990 ft 236 kts 91°
2026-05-04 02:08 33.89593 -118.09832 4986 ft 237 kts 91°
2026-05-04 02:08 33.89600 -118.08004 4984 ft 237 kts 91°
2026-05-04 02:09 33.89606 -118.06176 4978 ft 236 kts 91°
2026-05-04 02:09 33.89612 -118.04349 4977 ft 235 kts 91°
2026-05-04 02:09 33.89623 -118.02534 4969 ft 234 kts 91°
2026-05-04 02:09 33.89765 -118.00766 4949 ft 231 kts 71°
2026-05-04 02:10 33.90557 -117.99274 4982 ft 234 kts 40°
2026-05-04 02:10 33.91883 -117.98433 4979 ft 238 kts 10°
2026-05-04 02:10 33.93387 -117.98476 4975 ft 236 kts 340°
2026-05-04 02:10 33.94674 -117.99381 4967 ft 231 kts 310°
2026-05-04 02:11 33.95457 -118.00860 4982 ft 226 kts 292°
2026-05-04 02:11 33.95941 -118.02499 4981 ft 225 kts 282°
2026-05-04 02:11 33.96261 -118.04203 4992 ft 226 kts 280°
2026-05-04 02:11 33.96554 -118.05933 4990 ft 228 kts 278°
2026-05-04 02:12 33.96665 -118.07653 4983 ft 225 kts 268°
2026-05-04 02:12 33.96632 -118.09424 4715 ft 232 kts 265°
2026-05-04 02:12 33.96509 -118.11224 4456 ft 231 kts 262°
2026-05-04 02:12 33.96384 -118.12547 4239 ft 231 kts 262°
2026-05-04 02:13 33.96204 -118.14322 3961 ft 230 kts 262°
2026-05-04 02:13 33.96021 -118.16087 3677 ft 226 kts 262°
2026-05-04 02:13 33.95849 -118.17748 3438 ft 216 kts 261°
2026-05-04 02:13 33.95686 -118.19342 3184 ft 202 kts 261°
2026-05-04 02:14 33.95531 -118.20855 2915 ft 195 kts 261°
2026-05-04 02:14 33.95379 -118.22316 2678 ft 185 kts 262°
2026-05-04 02:14 33.95232 -118.23739 2460 ft 185 kts 262°
2026-05-04 02:14 33.95087 -118.25149 2223 ft 179 kts 262°
2026-05-04 02:15 33.94952 -118.26467 1997 ft 164 kts 263°
2026-05-04 02:15 33.94822 -118.27740 1803 ft 148 kts 263°
2026-05-04 02:15 33.94708 -118.28844 1657 ft 142 kts 263°
2026-05-04 02:15 33.94594 -118.29939 1473 ft 144 kts 264°
2026-05-04 02:16 33.94473 -118.31123 1277 ft 141 kts 264°
2026-05-04 02:16 33.94352 -118.32294 1093 ft 141 kts 264°
2026-05-04 02:16 33.94233 -118.33465 888 ft 142 kts 264°
2026-05-04 02:16 33.94154 -118.34250 746 ft 143 kts 264°
2026-05-04 02:17 33.94027 -118.35435 575 ft 142 kts 264°
2026-05-04 02:17 33.93903 -118.36604 411 ft 140 kts 262°
2026-05-04 02:17 33.93791 -118.37763 230 ft 139 kts 262°
2026-05-04 02:17 33.93677 -118.38893 105 ft 130 kts 262°
2026-05-04 02:18 33.93571 -118.39885 101 ft 113 kts 263°
2026-05-04 02:18 33.93486 -118.40739 98 ft 90 kts 263°
2026-05-04 02:18 33.93428 -118.41283 99 ft 31 kts 262°
2026-05-04 02:18 33.93402 -118.41532 98 ft 30 kts 263°
2026-05-04 02:19 33.93380 -118.41762 99 ft 23 kts 263°
2026-05-04 02:19 33.93385 -118.41873 100 ft 3 kts 290°
2026-05-04 02:19 33.93397 -118.41891 98 ft 3 kts 317°
2026-05-04 02:19 33.93415 -118.41900 98 ft 3 kts 348°
2026-05-04 02:20 33.93440 -118.41902 100 ft 4 kts 354°
2026-05-04 02:20 33.93460 -118.41904 99 ft 3 kts 356°
2026-05-04 02:20 33.93465 -118.41904 102 ft 0 kts 357°
2026-05-04 02:21 33.93473 -118.41905 100 ft 1 kts 357°
2026-05-04 02:21 33.93478 -118.41905 100 ft 1 kts 356°
2026-05-04 02:21 33.93479 -118.41905 100 ft 0 kts 356°
2026-05-04 02:22 33.93516 -118.41909 104 ft 7 kts 354°
2026-05-04 02:22 33.93563 -118.41916 105 ft 7 kts 350°
2026-05-04 02:22 33.93610 -118.41925 106 ft 7 kts 350°
2026-05-04 02:22 33.93658 -118.41935 103 ft 7 kts 351°
2026-05-04 02:23 33.93710 -118.41940 103 ft 8 kts
2026-05-04 02:23 33.93762 -118.41889 101 ft 14 kts 60°
2026-05-04 02:23 33.93782 -118.41778 101 ft 14 kts 83°
2026-05-04 02:23 33.93792 -118.41665 100 ft 14 kts 85°
2026-05-04 02:24 33.93802 -118.41551 98 ft 14 kts 83°
2026-05-04 02:24 33.93814 -118.41438 98 ft 14 kts 83°
2026-05-04 02:24 33.93826 -118.41325 101 ft 14 kts 83°
2026-05-04 02:24 33.93837 -118.41213 101 ft 14 kts 83°
2026-05-04 02:25 33.93850 -118.41100 99 ft 13 kts 83°
2026-05-04 02:25 33.93858 -118.41008 100 ft 12 kts 83°
2026-05-04 02:25 33.93868 -118.40909 100 ft 12 kts 83°
2026-05-04 02:25 33.93889 -118.40828 98 ft 9 kts 49°
2026-05-04 02:26 33.93950 -118.40815 100 ft 9 kts 353°
2026-05-04 02:26 33.94010 -118.40824 100 ft 9 kts 351°
2026-05-04 02:26 33.94061 -118.40824 98 ft 7 kts 21°
2026-05-04 02:26 33.94090 -118.40782 98 ft 6 kts 63°
2026-05-04 02:27 33.94100 -118.40757 98 ft 2 kts 66°
2026-05-04 02:27 33.94103 -118.40748 98 ft 1 kts 67°
2026-05-04 02:27 33.94104 -118.40745 98 ft 0 kts 67°